N5ZPR Weather Reports


time (UTC)temp
C
wind
direction
speed
KPH
gust
KPH
rain 1hr
cm
rain 24hr
cm
rain mn
cm
humidity
%
barometer
mb
20260906233003 36 131 0.0 0.0 0.00 0.00 0.00 39 1008.4
20260906232003 36 149 0.0 0.0 0.00 0.00 0.00 39 1008.6
20260906231004 36 132 0.0 0.0 0.00 0.00 0.00 38 1008.6
20260906230004 37 51 0.0 0.0 0.00 0.00 0.00 37 1008.6
20260906225004 37 76 0.0 0.0 0.00 0.00 0.00 37 1008.6
20260906224004 37 177 0.0 0.0 0.00 0.00 0.00 38 1008.6
20260906223003 37 115 0.0 0.0 0.00 0.00 0.00 38 1008.6
20260906222003 37 110 0.0 0.0 0.00 0.00 0.00 37 1008.6
20260906220003 37 48 0.0 0.0 0.00 0.00 0.00 38 1008.8
20260906215004 37 147 0.0 0.0 0.00 0.00 0.00 38 1008.8
20260906214004 37 48 0.0 0.0 0.00 0.00 0.00 38 1009.0
20260906213003 37 42 0.0 0.0 0.00 0.00 0.00 38 1009.0
20260906211003 38 107 0.0 0.0 0.00 0.00 0.00 38 1009.3
20260906210003 37 136 0.0 0.0 0.00 0.00 0.00 39 1009.3
20260906205003 37 130 0.0 0.0 0.00 0.00 0.00 38 1009.3
20260906204004 37 111 0.0 0.0 0.00 0.00 0.00 39 1010.6
20260906203004 38 168 0.0 0.0 0.00 0.00 0.00 38 1010.6
20260906202003 37 189 0.0 0.0 0.00 0.00 0.00 40 1010.6
20260906201003 37 184 0.0 0.0 0.00 0.00 0.00 40 1010.6
20260906195004 37 121 0.0 0.0 0.00 0.00 0.00 40 1010.6
20260906194003 37 96 0.0 0.0 0.00 0.00 0.00 39 1010.6
20260906193003 37 107 0.0 0.0 0.00 0.00 0.00 42 1010.6
20260906192004 36 164 0.0 0.0 0.00 0.00 0.00 43 1010.6
20260906191004 36 116 0.0 0.0 0.00 0.00 0.00 43 1010.6
20260906190003 36 70 0.0 0.0 0.00 0.00 0.00 44 1010.6
20260906185004 37 48 0.0 0.0 0.00 0.00 0.00 41 1010.8
20260906183003 36 80 0.0 0.0 0.00 0.00 0.00 45 1011.3
20260906182003 35 52 0.0 0.0 0.00 0.00 0.00 47 1011.3
20260906181004 35 69 0.0 0.0 0.00 0.00 0.00 48 1011.3
20260906180004 35 64 0.0 0.0 0.00 0.00 0.00 47 1011.3
20260906175003 35 146 0.0 0.0 0.00 0.00 0.00 47 1012.2
20260906173004 35 125 0.0 0.0 0.00 0.00 0.00 47 1012.2
20260906172003 35 185 0.0 0.0 0.00 0.00 0.00 48 1012.2
20260906171003 35 130 0.0 0.0 0.00 0.00 0.00 49 1012.4
20260906170003 34 120 0.0 0.0 0.00 0.00 0.00 50 1012.4
20260906165003 34 40 0.0 0.0 0.00 0.00 0.00 51 1012.4
20260906164004 34 46 0.0 0.0 0.00 0.00 0.00 52 1012.4
20260906163004 33 13 0.0 0.0 0.00 0.00 0.00 52 1012.4
20260906162004 33 117 0.0 0.0 0.00 0.00 0.00 54 1012.4
20260906161003 33 37 0.0 0.0 0.00 0.00 0.00 56 1012.5
20260906155003 32 111 0.0 0.0 0.00 0.00 0.00 60 1012.5
20260906154004 32 42 0.0 0.0 0.00 0.00 0.00 61 1012.5
20260906152003 32 111 0.0 0.0 0.00 0.00 0.00 63 1012.3
20260906151004 31 136 0.0 0.0 0.00 0.00 0.00 65 1012.2
20260906150004 31 160 0.0 0.0 0.00 0.00 0.00 66 1012.2
20260906145003 30 177 0.0 0.0 0.00 0.00 0.00 69 1012.1
20260906144003 29 61 0.0 0.0 0.00 0.00 0.00 71 1012.1
20260906143005 28 138 0.0 0.0 0.00 0.00 0.00 74 1012.1
20260906142003 28 0 0.0 0.0 0.00 0.00 0.00 75 1012.1
20260906141004 27 0 0.0 0.0 0.00 0.00 0.00 76 1012.0
20260906140003 27 0 0.0 0.0 0.00 0.00 0.00 77 1012.0
20260906135004 27 0 0.0 0.0 0.00 0.00 0.00 78 1012.0
20260906134003 27 0 0.0 0.0 0.00 0.00 0.00 78 1012.0
20260906133004 26 0 0.0 0.0 0.00 0.00 0.00 80 1011.6
20260906132003 26 0 0.0 0.0 0.00 0.00 0.00 82 1011.6
20260906130003 26 0 0.0 0.0 0.00 0.00 0.00 82 1011.6
20260906124004 25 0 0.0 0.0 0.00 0.00 0.00 82 1011.6
20260906123004 25 0 0.0 0.0 0.00 0.00 0.00 82 1011.6
20260906122003 25 0 0.0 0.0 0.00 0.00 0.00 83 1011.3
20260906120004 25 0 0.0 0.0 0.00 0.00 0.00 84 1011.3
20260906115004 25 0 0.0 0.0 0.00 0.00 0.00 84 1011.1
20260906114004 25 0 0.0 0.0 0.00 0.00 0.00 83 1011.1
20260906112003 25 0 0.0 0.0 0.00 0.00 0.00 81 1010.9
20260906111003 25 0 0.0 0.0 0.00 0.00 0.00 82 1010.9
20260906110003 25 0 0.0 0.0 0.00 0.00 0.00 82 1010.8
20260906105003 25 0 0.0 0.0 0.00 0.00 0.00 82 1010.8
20260906104003 26 0 0.0 0.0 0.00 0.00 0.00 81 1010.6
20260906103004 26 0 0.0 0.0 0.00 0.00 0.00 80 1010.6
20260906102004 26 0 0.0 0.0 0.00 0.00 0.00 79 1010.6
20260906101003 26 0 0.0 0.0 0.00 0.00 0.00 81 1010.1
20260906100003 25 0 0.0 0.0 0.00 0.00 0.00 82 1010.1
20260906095003 25 0 0.0 0.0 0.00 0.00 0.00 82 1010.1
20260906094003 25 0 0.0 0.0 0.00 0.00 0.00 82 1010.1
20260906093003 25 0 0.0 0.0 0.00 0.00 0.00 81 1010.1
20260906092004 25 0 0.0 0.0 0.00 0.00 0.00 81 1009.9
20260906091003 26 0 0.0 0.0 0.00 0.00 0.00 80 1009.9
20260906090004 26 0 0.0 0.0 0.00 0.00 0.00 79 1009.9
20260906084004 26 0 0.0 0.0 0.00 0.00 0.00 78 1010.0
20260906083004 26 0 0.0 0.0 0.00 0.00 0.00 77 1010.0
20260906082003 26 0 0.0 0.0 0.00 0.00 0.00 77 1010.6
20260906080003 27 0 0.0 0.0 0.00 0.00 0.00 76 1010.6
20260906075003 27 0 0.0 0.0 0.00 0.00 0.00 75 1010.6
20260906074003 27 0 0.0 0.0 0.00 0.00 0.00 75 1010.6
20260906073003 27 0 0.0 0.0 0.00 0.00 0.00 75 1010.6
20260906072003 27 0 0.0 0.0 0.00 0.00 0.00 74 1010.6
20260906071004 27 0 0.0 0.0 0.00 0.00 0.00 74 1010.6
20260906070003 27 0 0.0 0.0 0.00 0.00 0.00 74 1010.6
20260906065003 28 0 0.0 0.0 0.00 0.00 0.00 73 1010.6
20260906064004 28 0 0.0 0.0 0.00 0.00 0.00 73 1010.6
20260906063004 28 0 0.0 0.0 0.00 0.00 0.00 73 1010.7
20260906062003 28 0 0.0 0.0 0.00 0.00 0.00 72 1010.8
20260906061003 28 0 0.0 0.0 0.00 0.00 0.00 72 1010.8
20260906060004 28 0 0.0 0.0 0.00 0.00 0.00 72 1010.5
20260906054003 29 0 0.0 0.0 0.00 0.00 0.00 70 1010.5
20260906052003 28 0 0.0 0.0 0.00 0.00 0.00 71 1010.4
20260906051004 29 0 0.0 0.0 0.00 0.00 0.00 70 1010.4
20260906050004 29 0 0.0 0.0 0.00 0.00 0.00 70 1010.4
20260906045003 29 0 0.0 0.0 0.00 0.00 0.00 69 1010.4
20260906044003 29 0 0.0 0.0 0.00 0.00 0.00 69 1010.4
20260906043003 30 0 0.0 0.0 0.00 0.00 0.00 68 1010.4
20260906042003 30 0 0.0 0.0 0.00 0.00 0.00 68 1010.4
20260906041003 30 0 0.0 0.0 0.00 0.00 0.00 67 1010.4
20260906040003 30 0 0.0 0.0 0.00 0.00 0.00 67 1010.4
20260906033004 30 140 0.0 0.0 0.00 0.00 0.00 65 1010.5
20260906031004 30 153 0.0 0.0 0.00 0.00 0.00 63 1010.5
20260906030004 30 121 0.0 0.0 0.00 0.00 0.00 62 1009.2
20260906025003 31 115 0.0 0.0 0.00 0.00 0.00 61 1009.2
20260906024004 31 157 0.0 0.0 0.00 0.00 0.00 61 1009.2
20260906023004 31 115 0.0 0.0 0.00 0.00 0.00 60 1009.2
20260906022004 31 133 0.0 0.0 0.00 0.00 0.00 61 1009.2
20260906021004 31 131 0.0 0.0 0.00 0.00 0.00 60 1009.2
20260906020004 31 155 0.0 0.0 0.00 0.00 0.00 59 1009.2
20260906014003 32 115 0.0 0.0 0.00 0.00 0.00 58 1009.2
20260906013003 32 150 0.0 0.0 0.00 0.00 0.00 56 1009.2
20260906012003 32 115 0.0 0.0 0.00 0.00 0.00 55 1008.5
20260906011003 33 132 0.0 0.0 0.00 0.00 0.00 53 1008.5
20260906005003 34 123 0.0 3.2 0.00 0.00 0.00 47 1008.5
20260906004003 36 130 0.0 0.0 0.00 0.00 0.00 41 1008.5
20260906003003 35 152 0.0 1.6 0.00 0.00 0.00 41 1008.5
20260906002004 36 114 0.0 1.6 0.00 0.00 0.00 40 1008.3
20260906000003 36 88 0.0 1.6 0.00 0.00 0.00 39 1008.1
20260905235003 36 167 0.0 0.0 0.00 0.00 0.00 38 1008.1